Regional Weather Roundup
Issued by NWS

Home | Current Version | Previous Version | Graphics & Text | Print | Product List | Glossary On
Versions: 1 2 3 4 5 6 7 8 9 10 11 12 13 14 15 16 17 18 19 20 21 22 23 24 25 26 27 28 29 30 31 32 33 34 35 36 37 38 39 40 41 42 43 44 45 46 47 48 49 50
000
ASUS43 KBIS 101602
RWRND

NORTH DAKOTA REGIONAL WEATHER ROUNDUP
NATIONAL WEATHER SERVICE BISMARCK ND
1000 AM CST SAT DEC 10 2016

NOTE: "FAIR" INDICATES FEW OR NO CLOUDS BELOW 12,000 FEET WITH NO
SIGNIFICANT WEATHER AND/OR OBSTRUCTIONS TO VISIBILITY.


NDZ001>003-009>011-017-101700-
NORTHWEST NORTH DAKOTA

CITY           SKY/WX    TMP DP  RH WIND       PRES   REMARKS
WILLISTON      CLOUDY    -3  -9  75 E7        30.17F WCI -16
MINOT          CLOUDY   -18 -22  82 S5        30.28F WCI -31
MINOT AFB      CLOUDY   -23 -29  73 SE5       30.28F WCI -36
$$

NDZ018>021-031>035-040>046-101700-
SOUTHWEST NORTH DAKOTA

CITY           SKY/WX    TMP DP  RH WIND       PRES   REMARKS
BISMARCK       CLOUDY   -16 -20  82 NE6       30.31F WCI -31
DICKINSON      CLOUDY    -4  -9  79 SE16      30.07F WCI -25
GARRISON         N/A    -10 -14  82 E9        30.24F WCI -27
HETTINGER ARPT CLOUDY    -5  -9  83 SE12      30.08F WCI -23
$$

NDZ004>008-012>016-024-026-027-054-101700-
NORTHEAST NORTH DAKOTA

CITY           SKY/WX    TMP DP  RH WIND       PRES   REMARKS
GRAND FORKS    CLOUDY    -6 -13  71 NE5       30.46F WCI -17
GRND FRKS AFB  CLOUDY    -9 -14  77 CALM      30.45F
DEVILS LAKE    CLOUDY   -12 -16  82 CALM      30.36F
$$

NDZ022-023-025-028>030-036>039-047>053-101700-
SOUTHEAST NORTH DAKOTA

CITY           SKY/WX    TMP DP  RH WIND       PRES   REMARKS
FARGO          CLOUDY    -2  -9  72 E5        30.44F WCI -12
JAMESTOWN      CLOUDY   -10 -14  82 SE3       30.35S
$$




USA.gov is the U.S. government's official web portal to all federal, state and local government web resources and services.